TimeEST,TemperatureF,Dew PointF,Humidity,Sea Level PressureIn,VisibilityMPH,Wind Direction,Wind SpeedMPH,Gust SpeedMPH,PrecipitationIn,Events,Conditions,WindDirDegrees,DateUTC
12:15 AM,39.0,21.0,49,30.45,10.0,NNW,4.6,-,N/A,,Clear,340,2013-11-14 05:15:00
12:35 AM,38.8,20.8,48,30.45,10.0,NNW,4.6,-,N/A,,Clear,330,2013-11-14 05:35:00
12:55 AM,39.0,21.2,49,30.44,10.0,NNW,4.6,-,N/A,,Clear,330,2013-11-14 05:55:00
1:15 AM,38.8,21.4,50,30.44,10.0,NNW,4.6,-,N/A,,Clear,340,2013-11-14 06:15:00
1:35 AM,38.7,22.1,51,30.44,10.0,NNW,3.5,-,N/A,,Clear,330,2013-11-14 06:35:00
1:55 AM,38.8,22.1,51,30.44,10.0,NW,3.5,-,N/A,,Clear,320,2013-11-14 06:55:00
2:15 AM,37.9,22.6,54,30.44,10.0,Calm,Calm,-,N/A,,Clear,0,2013-11-14 07:15:00
2:35 AM,37.2,23.9,59,30.43,10.0,NNW,3.5,-,N/A,,Clear,330,2013-11-14 07:35:00
2:55 AM,37.8,23.7,57,30.43,10.0,WNW,3.5,-,N/A,,Clear,300,2013-11-14 07:55:00
3:15 AM,37.4,24.1,59,30.43,10.0,NW,3.5,-,N/A,,Clear,310,2013-11-14 08:15:00
3:35 AM,33.8,25.3,71,30.42,10.0,NW,3.5,-,N/A,,Clear,310,2013-11-14 08:35:00
3:55 AM,39.2,30.2,70,30.42,10.0,WNW,4.6,-,N/A,,Clear,300,2013-11-14 08:55:00
4:15 AM,38.7,30.0,71,30.43,10.0,West,5.8,-,N/A,,Clear,280,2013-11-14 09:15:00
4:35 AM,38.8,29.7,70,30.43,10.0,West,5.8,-,N/A,,Clear,280,2013-11-14 09:35:00
4:55 AM,38.5,29.1,69,30.43,10.0,West,5.8,-,N/A,,Clear,280,2013-11-14 09:55:00
5:15 AM,38.3,30.0,72,30.43,10.0,WNW,5.8,-,N/A,,Clear,290,2013-11-14 10:15:00
5:35 AM,38.8,28.9,68,30.44,10.0,WNW,4.6,-,N/A,,Clear,290,2013-11-14 10:35:00
5:55 AM,38.5,29.3,70,30.44,10.0,WNW,6.9,-,N/A,,Clear,290,2013-11-14 10:55:00
6:15 AM,38.5,25.9,61,30.44,10.0,West,6.9,-,N/A,,Clear,280,2013-11-14 11:15:00
6:35 AM,38.3,27.0,64,30.45,10.0,West,5.8,-,N/A,,Clear,280,2013-11-14 11:35:00
6:55 AM,37.9,27.0,65,30.46,10.0,West,4.6,-,N/A,,Clear,280,2013-11-14 11:55:00
7:15 AM,38.3,26.6,63,30.46,10.0,WNW,4.6,-,N/A,,Clear,290,2013-11-14 12:15:00
7:35 AM,38.8,27.0,62,30.47,10.0,West,5.8,-,N/A,,Clear,280,2013-11-14 12:35:00
7:55 AM,39.4,26.8,61,30.48,10.0,West,4.6,-,N/A,,Clear,280,2013-11-14 12:55:00
8:15 AM,39.6,26.2,59,30.48,10.0,West,8.1,-,N/A,,Clear,270,2013-11-14 13:15:00
8:35 AM,40.3,25.7,56,30.48,10.0,West,6.9,-,N/A,,Clear,280,2013-11-14 13:35:00
8:55 AM,41.2,26.4,56,30.48,10.0,West,8.1,-,N/A,,Clear,270,2013-11-14 13:55:00
9:15 AM,42.1,26.2,53,30.49,10.0,West,8.1,-,N/A,,Clear,270,2013-11-14 14:15:00
9:35 AM,43.7,26.4,51,30.49,10.0,West,6.9,-,N/A,,Clear,270,2013-11-14 14:35:00
9:55 AM,44.1,25.2,47,30.48,10.0,West,6.9,-,N/A,,Clear,270,2013-11-14 14:55:00
10:15 AM,45.0,23.7,43,30.48,10.0,West,6.9,-,N/A,,Clear,270,2013-11-14 15:15:00
10:35 AM,46.2,22.5,39,30.48,10.0,West,8.1,-,N/A,,Clear,270,2013-11-14 15:35:00
10:55 AM,47.1,21.7,37,30.47,10.0,West,8.1,-,N/A,,Clear,270,2013-11-14 15:55:00
11:15 AM,47.5,21.6,36,30.46,10.0,WSW,5.8,-,N/A,,Clear,250,2013-11-14 16:15:00
11:35 AM,47.5,21.2,35,30.45,10.0,West,4.6,-,N/A,,Clear,270,2013-11-14 16:35:00
11:55 AM,49.3,22.8,35,30.44,10.0,WSW,5.8,-,N/A,,Clear,250,2013-11-14 16:55:00
12:15 PM,49.6,22.3,34,30.43,10.0,WSW,8.1,-,N/A,,Clear,240,2013-11-14 17:15:00
12:35 PM,50.9,24.1,35,30.42,10.0,SW,6.9,-,N/A,,Clear,220,2013-11-14 17:35:00
12:55 PM,50.9,23.4,34,30.41,10.0,WSW,5.8,-,N/A,,Clear,240,2013-11-14 17:55:00
1:15 PM,52.2,24.8,35,30.41,10.0,WSW,8.1,-,N/A,,Clear,250,2013-11-14 18:15:00
1:35 PM,52.3,25.2,35,30.40,10.0,West,6.9,-,N/A,,Clear,260,2013-11-14 18:35:00
1:55 PM,53.1,25.3,34,30.39,10.0,West,6.9,-,N/A,,Clear,260,2013-11-14 18:55:00
2:15 PM,52.3,27.9,39,30.39,10.0,South,5.8,-,N/A,,Clear,190,2013-11-14 19:15:00
2:35 PM,52.7,27.0,37,30.38,10.0,SSW,5.8,-,N/A,,Clear,210,2013-11-14 19:35:00
2:55 PM,52.7,26.6,36,30.38,10.0,SW,4.6,-,N/A,,Clear,220,2013-11-14 19:55:00
3:15 PM,52.7,30.0,42,30.38,10.0,SW,3.5,-,N/A,,Clear,220,2013-11-14 20:15:00
3:35 PM,53.8,25.9,34,30.38,10.0,WSW,5.8,-,N/A,,Clear,250,2013-11-14 20:35:00
3:55 PM,53.6,30.9,42,30.38,10.0,WSW,4.6,-,N/A,,Clear,250,2013-11-14 20:55:00
4:15 PM,52.7,31.5,44,30.38,10.0,WSW,6.9,-,N/A,,Clear,240,2013-11-14 21:15:00
4:35 PM,51.8,32.7,48,30.37,10.0,WSW,6.9,-,N/A,,Clear,250,2013-11-14 21:35:00
4:55 PM,51.1,31.8,48,30.38,10.0,WSW,6.9,-,N/A,,Clear,240,2013-11-14 21:55:00
5:15 PM,50.2,33.8,53,30.38,10.0,SW,5.8,-,N/A,,Clear,220,2013-11-14 22:15:00
5:35 PM,49.8,32.5,51,30.37,10.0,SW,6.9,-,N/A,,Clear,220,2013-11-14 22:35:00
5:55 PM,49.3,34.3,56,30.37,10.0,SSW,8.1,-,N/A,,Clear,210,2013-11-14 22:55:00
6:15 PM,49.1,32.5,53,30.37,10.0,SW,10.4,-,N/A,,Clear,230,2013-11-14 23:15:00
6:35 PM,48.4,32.2,54,30.37,10.0,SW,10.4,-,N/A,,Clear,220,2013-11-14 23:35:00
6:55 PM,47.7,32.0,55,30.37,10.0,SW,10.4,-,N/A,,Clear,230,2013-11-14 23:55:00
7:15 PM,47.1,32.0,56,30.37,10.0,SW,8.1,-,N/A,,Clear,230,2013-11-15 00:15:00
7:35 PM,46.8,33.4,60,30.37,10.0,SW,10.4,-,N/A,,Clear,220,2013-11-15 00:35:00
7:55 PM,46.2,32.5,59,30.37,10.0,SW,10.4,-,N/A,,Clear,230,2013-11-15 00:55:00
8:15 PM,45.7,32.5,60,30.37,10.0,SW,10.4,-,N/A,,Clear,230,2013-11-15 01:15:00
8:35 PM,45.9,32.9,61,30.37,10.0,SW,11.5,-,N/A,,Clear,230,2013-11-15 01:35:00
8:55 PM,46.4,36.7,69,30.36,10.0,SW,12.7,-,N/A,,Clear,220,2013-11-15 01:55:00
9:15 PM,46.6,37.6,71,30.36,10.0,SW,12.7,-,N/A,,Clear,220,2013-11-15 02:15:00
9:35 PM,46.4,37.6,71,30.37,10.0,SW,10.4,-,N/A,,Clear,230,2013-11-15 02:35:00
9:55 PM,45.7,37.8,74,30.37,10.0,SW,10.4,-,N/A,,Clear,220,2013-11-15 02:55:00
10:15 PM,45.9,37.6,73,30.36,10.0,SW,9.2,-,N/A,,Clear,220,2013-11-15 03:15:00
10:35 PM,46.6,37.2,70,30.36,10.0,SW,9.2,-,N/A,,Clear,230,2013-11-15 03:35:00
10:55 PM,46.8,38.3,72,30.36,10.0,SW,10.4,-,N/A,,Clear,230,2013-11-15 03:55:00
11:15 PM,46.4,38.8,75,30.36,10.0,SW,8.1,-,N/A,,Clear,230,2013-11-15 04:15:00
11:35 PM,45.9,38.7,76,30.36,10.0,SW,9.2,-,N/A,,Clear,230,2013-11-15 04:35:00
11:55 PM,46.6,39.0,75,30.36,10.0,SW,9.2,-,N/A,,Clear,230,2013-11-15 04:55:00